Time,TemperatureF,DewpointF,PressureIn,WindDirection,WindDirectionDegrees,WindSpeedMPH,WindSpeedGustMPH,Humidity,HourlyPrecipIn,Conditions,Clouds,dailyrainin,SoftwareType,DateUTC
2013-03-27 00:02:00,31.0,21.0,30.27,North,-999,-999.0,-999.0,66,-99.99,,,-99.99,,2013-03-27 05:02:00,
2013-03-27 00:12:00,31.0,20.0,30.26,North,-999,-999.0,-999.0,64,-99.99,,,-99.99,,2013-03-27 05:12:00,
2013-03-27 00:23:00,31.0,20.0,30.26,North,-999,-999.0,-999.0,64,-99.99,,,-99.99,,2013-03-27 05:23:00,
2013-03-27 00:33:00,31.0,21.0,30.27,North,-999,-999.0,-999.0,65,-99.99,,,-99.99,,2013-03-27 05:33:00,
2013-03-27 00:42:00,31.0,19.0,30.27,North,-999,-999.0,-999.0,63,-99.99,,,-99.99,,2013-03-27 05:42:00,
2013-03-27 00:52:00,31.0,19.0,30.27,North,-999,-999.0,-999.0,63,-99.99,,,-99.99,,2013-03-27 05:52:00,
2013-03-27 01:02:00,29.0,21.0,30.27,North,-999,-999.0,-999.0,73,-99.99,,,-99.99,,2013-03-27 06:02:00,
2013-03-27 01:12:00,32.0,21.0,30.26,North,-999,-999.0,-999.0,64,-99.99,,,-99.99,,2013-03-27 06:12:00,
2013-03-27 01:22:00,32.0,21.0,30.26,North,-999,-999.0,-999.0,64,-99.99,,,-99.99,,2013-03-27 06:22:00,
2013-03-27 01:32:00,28.0,20.0,30.26,North,-999,-999.0,-999.0,73,-99.99,,,-99.99,,2013-03-27 06:32:00,
2013-03-27 01:42:00,31.0,21.0,30.26,North,-999,-999.0,-999.0,67,-99.99,,,-99.99,,2013-03-27 06:42:00,
2013-03-27 01:52:00,31.0,21.0,30.26,North,-999,-999.0,-999.0,67,-99.99,,,-99.99,,2013-03-27 06:52:00,
2013-03-27 02:00:00,30.0,21.0,30.25,North,-999,-999.0,-999.0,67,-99.99,,,-99.99,,2013-03-27 07:00:00,
2013-03-27 02:02:00,30.0,20.0,30.25,North,-999,-999.0,-999.0,66,-99.99,,,-99.99,,2013-03-27 07:02:00,
2013-03-27 02:12:00,30.0,20.0,30.25,North,-999,-999.0,-999.0,66,-99.99,,,-99.99,,2013-03-27 07:12:00,
2013-03-27 02:22:00,30.0,20.0,30.25,North,-999,-999.0,-999.0,66,-99.99,,,-99.99,,2013-03-27 07:22:00,
2013-03-27 02:30:00,31.0,21.0,30.25,North,-999,-999.0,-999.0,66,-99.99,,,-99.99,,2013-03-27 07:30:00,
2013-03-27 02:32:00,30.0,20.0,30.25,North,-999,-999.0,-999.0,67,-99.99,,,-99.99,,2013-03-27 07:32:00,
2013-03-27 02:42:00,30.0,21.0,30.25,North,-999,-999.0,-999.0,67,-99.99,,,-99.99,,2013-03-27 07:42:00,
2013-03-27 02:53:00,30.0,21.0,30.25,North,-999,-999.0,-999.0,67,-99.99,,,-99.99,,2013-03-27 07:53:00,
2013-03-27 03:22:00,31.0,21.0,30.25,North,-999,-999.0,-999.0,66,-99.99,,,-99.99,,2013-03-27 08:22:00,
2013-03-27 03:43:00,31.0,21.0,30.24,North,-999,-999.0,-999.0,66,-99.99,,,-99.99,,2013-03-27 08:43:00,
2013-03-27 03:52:00,31.0,21.0,30.24,North,-999,-999.0,-999.0,66,-99.99,,,-99.99,,2013-03-27 08:52:00,
2013-03-27 04:02:00,31.0,21.0,30.24,North,-999,-999.0,-999.0,66,-99.99,,,-99.99,,2013-03-27 09:02:00,
2013-03-27 04:12:00,30.0,20.0,30.23,North,-999,-999.0,-999.0,67,-99.99,,,-99.99,,2013-03-27 09:12:00,
2013-03-27 04:22:00,30.0,20.0,30.23,North,-999,-999.0,-999.0,67,-99.99,,,-99.99,,2013-03-27 09:22:00,
2013-03-27 04:32:00,30.0,21.0,30.23,North,-999,-999.0,-999.0,68,-99.99,,,-99.99,,2013-03-27 09:32:00,
2013-03-27 04:42:00,30.0,20.0,30.23,North,-999,-999.0,-999.0,68,-99.99,,,-99.99,,2013-03-27 09:42:00,
2013-03-27 04:52:00,30.0,20.0,30.23,North,-999,-999.0,-999.0,68,-99.99,,,-99.99,,2013-03-27 09:52:00,
2013-03-27 05:02:00,30.0,20.0,30.23,North,-999,-999.0,-999.0,67,-99.99,,,-99.99,,2013-03-27 10:02:00,
2013-03-27 05:12:00,30.0,21.0,30.23,North,-999,-999.0,-999.0,67,-99.99,,,-99.99,,2013-03-27 10:12:00,
2013-03-27 05:23:00,30.0,21.0,30.23,North,-999,-999.0,-999.0,67,-99.99,,,-99.99,,2013-03-27 10:23:00,
2013-03-27 05:32:00,30.0,20.0,30.23,North,-999,-999.0,-999.0,67,-99.99,,,-99.99,,2013-03-27 10:32:00,
2013-03-27 05:42:00,30.0,20.0,30.23,North,-999,-999.0,-999.0,67,-99.99,,,-99.99,,2013-03-27 10:42:00,
2013-03-27 05:52:00,30.0,20.0,30.23,North,-999,-999.0,-999.0,67,-99.99,,,-99.99,,2013-03-27 10:52:00,
2013-03-27 06:02:00,30.0,20.0,30.22,North,-999,-999.0,-999.0,67,-99.99,,,-99.99,,2013-03-27 11:02:00,
2013-03-27 06:12:00,30.0,21.0,30.23,North,-999,-999.0,-999.0,68,-99.99,,,-99.99,,2013-03-27 11:12:00,
2013-03-27 06:22:00,30.0,21.0,30.23,North,-999,-999.0,-999.0,68,-99.99,,,-99.99,,2013-03-27 11:22:00,
2013-03-27 06:32:00,30.0,21.0,30.23,North,-999,-999.0,-999.0,68,-99.99,,,-99.99,,2013-03-27 11:32:00,
2013-03-27 06:42:00,30.0,20.0,30.23,North,-999,-999.0,-999.0,67,-99.99,,,-99.99,,2013-03-27 11:42:00,
2013-03-27 06:52:00,30.0,20.0,30.23,North,-999,-999.0,-999.0,67,-99.99,,,-99.99,,2013-03-27 11:52:00,
2013-03-27 07:02:00,30.0,21.0,30.24,North,-999,-999.0,-999.0,68,-99.99,,,-99.99,,2013-03-27 12:02:00,
2013-03-27 07:12:00,30.0,21.0,30.24,North,-999,-999.0,-999.0,68,-99.99,,,-99.99,,2013-03-27 12:12:00,
2013-03-27 07:23:00,30.0,21.0,30.24,North,-999,-999.0,-999.0,68,-99.99,,,-99.99,,2013-03-27 12:23:00,
2013-03-27 07:32:00,30.0,21.0,30.25,North,-999,-999.0,-999.0,67,-99.99,,,-99.99,,2013-03-27 12:32:00,
2013-03-27 07:43:00,30.0,21.0,30.25,North,-999,-999.0,-999.0,67,-99.99,,,-99.99,,2013-03-27 12:43:00,
2013-03-27 07:52:00,30.0,21.0,30.25,North,-999,-999.0,-999.0,67,-99.99,,,-99.99,,2013-03-27 12:52:00,
2013-03-27 08:02:00,30.0,21.0,30.24,North,-999,-999.0,-999.0,68,-99.99,,,-99.99,,2013-03-27 13:02:00,
2013-03-27 08:12:00,30.0,21.0,30.25,North,-999,-999.0,-999.0,69,-99.99,,,-99.99,,2013-03-27 13:12:00,
2013-03-27 08:22:00,30.0,21.0,30.25,North,-999,-999.0,-999.0,69,-99.99,,,-99.99,,2013-03-27 13:22:00,
2013-03-27 08:32:00,31.0,21.0,30.26,North,-999,-999.0,-999.0,66,-99.99,,,-99.99,,2013-03-27 13:32:00,
2013-03-27 08:42:00,32.0,22.0,30.27,North,-999,-999.0,-999.0,66,-99.99,,,-99.99,,2013-03-27 13:42:00,
2013-03-27 08:52:00,32.0,22.0,30.27,North,-999,-999.0,-999.0,66,-99.99,,,-99.99,,2013-03-27 13:52:00,
2013-03-27 09:02:00,33.0,22.0,30.28,North,-999,-999.0,-999.0,65,-99.99,,,-99.99,,2013-03-27 14:02:00,
2013-03-27 09:12:00,33.0,22.0,30.28,North,-999,-999.0,-999.0,65,-99.99,,,-99.99,,2013-03-27 14:12:00,
2013-03-27 09:22:00,33.0,22.0,30.28,North,-999,-999.0,-999.0,65,-99.99,,,-99.99,,2013-03-27 14:22:00,
2013-03-27 09:32:00,34.0,23.0,30.28,North,-999,-999.0,-999.0,64,-99.99,,,-99.99,,2013-03-27 14:32:00,
2013-03-27 09:42:00,35.0,24.0,30.28,North,-999,-999.0,-999.0,63,-99.99,,,-99.99,,2013-03-27 14:42:00,
2013-03-27 09:52:00,35.0,24.0,30.28,North,-999,-999.0,-999.0,63,-99.99,,,-99.99,,2013-03-27 14:52:00,
2013-03-27 10:02:00,37.0,25.0,30.28,North,-999,-999.0,-999.0,61,-99.99,,,-99.99,,2013-03-27 15:02:00,
2013-03-27 10:12:00,36.0,24.0,30.28,North,-999,-999.0,-999.0,61,-99.99,,,-99.99,,2013-03-27 15:12:00,
2013-03-27 10:22:00,36.0,24.0,30.28,North,-999,-999.0,-999.0,61,-99.99,,,-99.99,,2013-03-27 15:22:00,
2013-03-27 10:33:00,37.0,26.0,30.28,North,-999,-999.0,-999.0,62,-99.99,,,-99.99,,2013-03-27 15:33:00,
2013-03-27 10:42:00,38.0,26.0,30.28,North,-999,-999.0,-999.0,63,-99.99,,,-99.99,,2013-03-27 15:42:00,
2013-03-27 10:52:00,38.0,26.0,30.28,North,-999,-999.0,-999.0,63,-99.99,,,-99.99,,2013-03-27 15:52:00,
2013-03-27 11:00:00,41.0,24.0,30.28,North,-999,-999.0,-999.0,51,-99.99,,,-99.99,,2013-03-27 16:00:00,
2013-03-27 11:03:00,40.0,25.0,30.28,North,-999,-999.0,-999.0,54,-99.99,,,-99.99,,2013-03-27 16:03:00,
2013-03-27 11:13:00,41.0,25.0,30.28,North,-999,-999.0,-999.0,53,-99.99,,,-99.99,,2013-03-27 16:13:00,
2013-03-27 11:22:00,41.0,25.0,30.28,North,-999,-999.0,-999.0,53,-99.99,,,-99.99,,2013-03-27 16:22:00,
2013-03-27 11:32:00,41.0,25.0,30.28,North,-999,-999.0,-999.0,53,-99.99,,,-99.99,,2013-03-27 16:32:00,
2013-03-27 11:42:00,41.0,24.0,30.28,North,-999,-999.0,-999.0,51,-99.99,,,-99.99,,2013-03-27 16:42:00,
2013-03-27 11:52:00,41.0,24.0,30.28,North,-999,-999.0,-999.0,51,-99.99,,,-99.99,,2013-03-27 16:52:00,
2013-03-27 12:12:00,43.0,25.0,30.27,North,-999,-999.0,-999.0,49,-99.99,,,-99.99,,2013-03-27 17:12:00,
2013-03-27 12:22:00,43.0,25.0,30.27,North,-999,-999.0,-999.0,49,-99.99,,,-99.99,,2013-03-27 17:22:00,
2013-03-27 12:32:00,44.0,26.0,30.27,North,-999,-999.0,-999.0,48,-99.99,,,-99.99,,2013-03-27 17:32:00,
2013-03-27 12:44:00,45.0,25.0,30.27,North,-999,-999.0,-999.0,45,-99.99,,,-99.99,,2013-03-27 17:44:00,
2013-03-27 12:52:00,45.0,25.0,30.27,North,-999,-999.0,-999.0,45,-99.99,,,-99.99,,2013-03-27 17:52:00,
2013-03-27 13:02:00,46.0,26.0,30.27,North,-999,-999.0,-999.0,44,-99.99,,,-99.99,,2013-03-27 18:02:00,
2013-03-27 13:12:00,47.0,25.0,30.26,North,-999,-999.0,-999.0,41,-99.99,,,-99.99,,2013-03-27 18:12:00,
2013-03-27 13:22:00,47.0,25.0,30.26,North,-999,-999.0,-999.0,41,-99.99,,,-99.99,,2013-03-27 18:22:00,
2013-03-27 13:32:00,48.0,25.0,30.26,North,-999,-999.0,-999.0,41,-99.99,,,-99.99,,2013-03-27 18:32:00,
2013-03-27 13:42:00,48.0,27.0,30.26,North,-999,-999.0,-999.0,44,-99.99,,,-99.99,,2013-03-27 18:42:00,
2013-03-27 13:52:00,48.0,27.0,30.26,North,-999,-999.0,-999.0,44,-99.99,,,-99.99,,2013-03-27 18:52:00,
2013-03-27 14:02:00,48.0,24.0,30.25,North,-999,-999.0,-999.0,38,-99.99,,,-99.99,,2013-03-27 19:02:00,
2013-03-27 14:12:00,48.0,24.0,30.24,North,-999,-999.0,-999.0,38,-99.99,,,-99.99,,2013-03-27 19:12:00,
2013-03-27 14:22:00,48.0,24.0,30.24,North,-999,-999.0,-999.0,38,-99.99,,,-99.99,,2013-03-27 19:22:00,
2013-03-27 14:32:00,49.0,23.0,30.23,North,-999,-999.0,-999.0,36,-99.99,,,-99.99,,2013-03-27 19:32:00,
2013-03-27 14:42:00,49.0,23.0,30.23,North,-999,-999.0,-999.0,36,-99.99,,,-99.99,,2013-03-27 19:42:00,
2013-03-27 14:52:00,49.0,23.0,30.23,North,-999,-999.0,-999.0,36,-99.99,,,-99.99,,2013-03-27 19:52:00,
2013-03-27 15:02:00,48.0,24.0,30.22,North,-999,-999.0,-999.0,39,-99.99,,,-99.99,,2013-03-27 20:02:00,
2013-03-27 15:12:00,48.0,23.0,30.22,North,-999,-999.0,-999.0,38,-99.99,,,-99.99,,2013-03-27 20:12:00,
2013-03-27 15:22:00,48.0,23.0,30.22,North,-999,-999.0,-999.0,38,-99.99,,,-99.99,,2013-03-27 20:22:00,
2013-03-27 15:32:00,49.0,23.0,30.20,North,-999,-999.0,-999.0,36,-99.99,,,-99.99,,2013-03-27 20:32:00,
2013-03-27 15:42:00,49.0,25.0,30.20,North,-999,-999.0,-999.0,39,-99.99,,,-99.99,,2013-03-27 20:42:00,
2013-03-27 15:52:00,49.0,25.0,30.20,North,-999,-999.0,-999.0,39,-99.99,,,-99.99,,2013-03-27 20:52:00,
2013-03-27 16:02:00,49.0,24.0,30.19,North,-999,-999.0,-999.0,38,-99.99,,,-99.99,,2013-03-27 21:02:00,
2013-03-27 16:12:00,49.0,23.0,30.18,North,-999,-999.0,-999.0,36,-99.99,,,-99.99,,2013-03-27 21:12:00,
2013-03-27 16:22:00,49.0,23.0,30.18,North,-999,-999.0,-999.0,36,-99.99,,,-99.99,,2013-03-27 21:22:00,
2013-03-27 16:32:00,50.0,25.0,30.17,North,-999,-999.0,-999.0,38,-99.99,,,-99.99,,2013-03-27 21:32:00,
2013-03-27 16:43:00,50.0,24.0,30.17,North,-999,-999.0,-999.0,36,-99.99,,,-99.99,,2013-03-27 21:43:00,
2013-03-27 16:52:00,50.0,24.0,30.17,North,-999,-999.0,-999.0,36,-99.99,,,-99.99,,2013-03-27 21:52:00,
2013-03-27 17:03:00,50.0,26.0,30.16,North,-999,-999.0,-999.0,39,-99.99,,,-99.99,,2013-03-27 22:03:00,
2013-03-27 17:12:00,52.0,26.0,30.16,North,-999,-999.0,-999.0,36,-99.99,,,-99.99,,2013-03-27 22:12:00,
2013-03-27 17:23:00,52.0,26.0,30.16,North,-999,-999.0,-999.0,36,-99.99,,,-99.99,,2013-03-27 22:23:00,
2013-03-27 17:33:00,51.0,26.0,30.15,North,-999,-999.0,-999.0,37,-99.99,,,-99.99,,2013-03-27 22:33:00,
2013-03-27 17:42:00,52.0,25.0,30.15,North,-999,-999.0,-999.0,35,-99.99,,,-99.99,,2013-03-27 22:42:00,
2013-03-27 17:52:00,52.0,25.0,30.15,North,-999,-999.0,-999.0,35,-99.99,,,-99.99,,2013-03-27 22:52:00,
2013-03-27 18:02:00,52.0,25.0,30.15,North,-999,-999.0,-999.0,34,-99.99,,,-99.99,,2013-03-27 23:02:00,
2013-03-27 18:12:00,52.0,25.0,30.15,North,-999,-999.0,-999.0,34,-99.99,,,-99.99,,2013-03-27 23:12:00,
2013-03-27 18:22:00,52.0,25.0,30.15,North,-999,-999.0,-999.0,34,-99.99,,,-99.99,,2013-03-27 23:22:00,
2013-03-27 18:32:00,52.0,25.0,30.15,North,-999,-999.0,-999.0,34,-99.99,,,-99.99,,2013-03-27 23:32:00,
2013-03-27 18:42:00,52.0,25.0,30.15,North,-999,-999.0,-999.0,35,-99.99,,,-99.99,,2013-03-27 23:42:00,
2013-03-27 18:52:00,52.0,25.0,30.15,North,-999,-999.0,-999.0,35,-99.99,,,-99.99,,2013-03-27 23:52:00,
2013-03-27 19:02:00,52.0,26.0,30.14,North,-999,-999.0,-999.0,36,-99.99,,,-99.99,,2013-03-28 00:02:00,
2013-03-27 19:12:00,52.0,26.0,30.15,North,-999,-999.0,-999.0,37,-99.99,,,-99.99,,2013-03-28 00:12:00,
2013-03-27 19:22:00,52.0,26.0,30.15,North,-999,-999.0,-999.0,37,-99.99,,,-99.99,,2013-03-28 00:22:00,
2013-03-27 19:32:00,51.0,26.0,30.15,North,-999,-999.0,-999.0,37,-99.99,,,-99.99,,2013-03-28 00:32:00,
2013-03-27 19:43:00,50.0,26.0,30.16,North,-999,-999.0,-999.0,38,-99.99,,,-99.99,,2013-03-28 00:43:00,
2013-03-27 19:52:00,50.0,26.0,30.16,North,-999,-999.0,-999.0,38,-99.99,,,-99.99,,2013-03-28 00:52:00,
2013-03-27 20:02:00,49.0,25.0,30.16,North,-999,-999.0,-999.0,40,-99.99,,,-99.99,,2013-03-28 01:02:00,
2013-03-27 20:12:00,47.0,24.0,30.16,North,-999,-999.0,-999.0,40,-99.99,,,-99.99,,2013-03-28 01:12:00,
2013-03-27 20:22:00,47.0,24.0,30.16,North,-999,-999.0,-999.0,40,-99.99,,,-99.99,,2013-03-28 01:22:00,
2013-03-27 20:32:00,48.0,25.0,30.16,North,-999,-999.0,-999.0,40,-99.99,,,-99.99,,2013-03-28 01:32:00,
2013-03-27 20:42:00,48.0,25.0,30.17,North,-999,-999.0,-999.0,40,-99.99,,,-99.99,,2013-03-28 01:42:00,
2013-03-27 20:50:00,46.0,24.0,30.18,North,-999,-999.0,-999.0,42,-99.99,,,-99.99,,2013-03-28 01:50:00,
2013-03-27 20:52:00,48.0,25.0,30.17,North,-999,-999.0,-999.0,40,-99.99,,,-99.99,,2013-03-28 01:52:00,
2013-03-27 21:02:00,47.0,25.0,30.17,North,-999,-999.0,-999.0,42,-99.99,,,-99.99,,2013-03-28 02:02:00,
2013-03-27 21:12:00,47.0,24.0,30.17,North,-999,-999.0,-999.0,41,-99.99,,,-99.99,,2013-03-28 02:12:00,
2013-03-27 21:22:00,47.0,24.0,30.17,North,-999,-999.0,-999.0,41,-99.99,,,-99.99,,2013-03-28 02:22:00,
2013-03-27 21:32:00,46.0,24.0,30.18,North,-999,-999.0,-999.0,42,-99.99,,,-99.99,,2013-03-28 02:32:00,
2013-03-27 21:42:00,46.0,24.0,30.18,North,-999,-999.0,-999.0,42,-99.99,,,-99.99,,2013-03-28 02:42:00,
2013-03-27 22:02:00,46.0,26.0,30.19,North,-999,-999.0,-999.0,44,-99.99,,,-99.99,,2013-03-28 03:02:00,
2013-03-27 22:12:00,47.0,26.0,30.19,North,-999,-999.0,-999.0,44,-99.99,,,-99.99,,2013-03-28 03:12:00,
2013-03-27 22:22:00,47.0,26.0,30.19,North,-999,-999.0,-999.0,44,-99.99,,,-99.99,,2013-03-28 03:22:00,
2013-03-27 22:33:00,47.0,25.0,30.19,North,-999,-999.0,-999.0,43,-99.99,,,-99.99,,2013-03-28 03:33:00,
2013-03-27 22:43:00,46.0,26.0,30.19,North,-999,-999.0,-999.0,44,-99.99,,,-99.99,,2013-03-28 03:43:00,
2013-03-27 22:52:00,46.0,26.0,30.19,North,-999,-999.0,-999.0,44,-99.99,,,-99.99,,2013-03-28 03:52:00,
2013-03-27 23:02:00,47.0,25.0,30.19,North,-999,-999.0,-999.0,43,-99.99,,,-99.99,,2013-03-28 04:02:00,
2013-03-27 23:12:00,47.0,26.0,30.19,North,-999,-999.0,-999.0,43,-99.99,,,-99.99,,2013-03-28 04:12:00,
2013-03-27 23:23:00,47.0,26.0,30.19,North,-999,-999.0,-999.0,43,-99.99,,,-99.99,,2013-03-28 04:23:00,
2013-03-27 23:32:00,47.0,26.0,30.18,North,-999,-999.0,-999.0,44,-99.99,,,-99.99,,2013-03-28 04:32:00,
2013-03-27 23:42:00,47.0,26.0,30.19,North,-999,-999.0,-999.0,44,-99.99,,,-99.99,,2013-03-28 04:42:00,
2013-03-27 23:52:00,47.0,26.0,30.19,North,-999,-999.0,-999.0,44,-99.99,,,-99.99,,2013-03-28 04:52:00,